Location: Poprad
(49.0500°N, 20.3000°E)
Time: 05:43:14
(UTC+02:00)

AAUSAT CUBESAT 2 - Visible Passes

Search period start: 16 April 2024 00:00
Search period end: 26 April 2024 00:00
Orbit: 519 x 529 km, 97.6° (Epoch: 15 April)

Date Brightness Start Highest point End Pass type
(mag) Time Alt. Az. Time Alt. Az. Time Alt. Az.
16 Apr ? 04:02:39 10° ENE 04:04:25 13° E 04:06:09 10° ESE visible
19 Apr ? 04:58:15 10° NNE 05:01:59 50° E 05:05:42 10° S visible
20 Apr ? 04:45:57 10° NNE 04:49:30 36° E 04:53:02 10° SSE visible
21 Apr ? 04:33:39 10° NE 04:36:56 27° E 04:40:12 10° SSE visible
22 Apr ? 04:21:26 10° NE 04:24:18 20° E 04:27:10 10° SE visible
23 Apr ? 04:09:20 10° NE 04:11:35 15° E 04:13:51 10° SE visible
24 Apr ? 03:57:43 10° ENE 03:58:48 11° E 03:59:54 10° ESE visible
